This is the latest recevied weather packets stored in our database for station/object BG5HLN-13. If no packets are shown the sender has not sent any weather packets the latest 10 day(s).
| Time | Temp. | Humidity | Pressure | Rain* | Wind** | Luminosity | Snow |
|---|---|---|---|---|---|---|---|
| 1777782564 | 22.78° C | 74% | 1009.5 hPa | 0 mm | - | - | - |
| 1777781965 | 22.78° C | 75% | 1009.7 hPa | 0 mm | - | - | - |
| 1777781367 | 22.22° C | 76% | 1009.8 hPa | 0 mm | - | - | - |
| 1777781365 | 22.22° C | 76% | 1009.7 hPa | 0 mm | - | - | - |
| 1777780765 | 22.22° C | 76% | 1009.8 hPa | 0 mm | - | - | - |
| 1777780165 | 21.67° C | 79% | 1009.8 hPa | 0 mm | - | - | - |
| 1777779567 | 21.67° C | 79% | 1009.8 hPa | 0.25 mm | - | - | - |
| 1777779565 | 21.67° C | 79% | 1009.7 hPa | 0.25 mm | - | - | - |
| 1777778965 | 21.11° C | 79% | 1009.8 hPa | 0.25 mm | - | - | - |
| 1777778365 | 21.11° C | 81% | 1009.6 hPa | 0.25 mm | - | - | - |
| 1777777767 | 21.11° C | 81% | 1009.6 hPa | 0.25 mm | - | - | - |
| 1777777765 | 21.11° C | 81% | 1009.6 hPa | 0.25 mm | - | - | - |
| 1777777165 | 21.11° C | 82% | 1009.6 hPa | 0.25 mm | - | - | - |
| 1777776565 | 20.56° C | 82% | 1009.6 hPa | 0.25 mm | - | - | - |
| 1777775968 | 20.56° C | 85% | 1009.7 hPa | 0 mm | - | - | - |
| 1777775964 | 20.56° C | 85% | 1009.8 hPa | 0 mm | - | - | - |
| 1777775364 | 20.56° C | 86% | 1009.8 hPa | 0 mm | - | - | - |
| 1777774764 | 20° C | 87% | 1009.6 hPa | 0 mm | - | - | - |
| 1777774164 | 19.44° C | 88% | 1009.7 hPa | 0 mm | - | - | - |
| 1777773565 | 19.44° C | 89% | 1009.8 hPa | 0 mm | - | - | - |
| 1777772964 | 19.44° C | 90% | 1009.6 hPa | 0 mm | - | - | - |
| 1777772365 | 18.89° C | 90% | 1009.5 hPa | 0 mm | - | - | - |
| 1777771764 | 18.89° C | 90% | 1009.5 hPa | 0 mm | - | - | - |
| 1777771164 | 18.89° C | 90% | 1009.3 hPa | 0 mm | - | - | - |
| 1777770565 | 19.44° C | 90% | 1009.2 hPa | 0 mm | - | - | - |
* Rain latest hour (hover to see other rain measurements)
** Current wind speed in m/s (hover to see current wind gust speed)